Location: Misciano
(43.5000°N, 11.9500°E)
Time: 21:54:29
(UTC+00:00)

Cosmos 407 Rocket - Pass Details

Date: 13 August 2020
Orbit: 744 x 786 km, 74.0° (Epoch: 22 September)

Event Time Altitude Azimuth Distance (km) Brightness Sun altitude
Rises 18:49:00 0° 192° (SSW) 3,256 6.6 -6.0°
Reaches altitude 10° 18:51:23 10° 190° (S) 2,329 5.8 -6.4°
Maximum altitude 18:56:39 71° 108° (ESE) 823 3.5 -7.2°
Drops below altitude 10° 19:01:54 10° 25° (NNE) 2,322 6.1 -8.1°
Sets 19:04:17 0° 23° (NNE) 3,247 6.8 -8.4°
